Location: *
(51.0333°S, 178.4667°E)
Time: 05:27:32
(UTC+00:00)

Terra - Pass Details

Date: 15 November 2019
Orbit: 702 x 703 km, 98.2° (Epoch: 14 December)

Event Time Altitude Azimuth Distance (km) Brightness Sun altitude
Rises 10:14:15 0° 158° (SSE) 3,137 5.9 -17.4°
Reaches altitude 10° 10:16:47 10° 148° (SSE) 2,210 4.8 -17.5°
Maximum altitude 10:21:05 31° 85° (E) 1,253 2.9 -17.8°
Enters shadow 10:22:19 27° 58° (ENE) 1,355 2.8 -17.8°
